����,���ϕ���(m/s),���ϕ���,�ő�u�ԕ���(m/s),�ő啗��������,�C��(��),���x(%),10���Ԉړ��ώZ�J��(mm),1���Ԉړ��ώZ�J��(mm),���J��(mm),�݌v�J��(mm),����(���ώZ)(MJ/m2),����(���ώZ)(min),���n�C��(hPa),�C�ʋC��(hPa)
2021-01-11T00:00:00+09:00,1.8,�쐼,6.1,��,0,63,0,0,0,0,10.29,374,1010.2,1024.9
2021-01-11T00:01:00+09:00,1.6,���쐼,5,��,0,62.4,0,0,0,0,0,0,1010.2,1024.9
2021-01-11T00:02:00+09:00,1.3,��,5,��,-0.1,61.6,0,0,0,0,0,0,1010.2,1024.9
2021-01-11T00:03:00+09:00,1.1,��,4.2,��,-0.1,61.8,0,0,0,0,0,0,1010.2,1024.9
2021-01-11T00:04:00+09:00,1,���k��,3.3,��,0,61.8,0,0,0,0,0,0,1010.2,1024.9
2021-01-11T00:05:00+09:00,0.8,���k��,3.3,��,0,61.8,0,0,0,0,0,0,1010.2,1024.9
2021-01-11T00:06:00+09:00,0.7,���k��,2.1,��쐼,0,61.7,0,0,0,0,0,0,1010.1,1024.8
2021-01-11T00:07:00+09:00,0.8,���k��,2.1,��쐼,0,61.6,0,0,0,0,0,0,1010.2,1024.9
2021-01-11T00:08:00+09:00,0.8,�k��,2.1,��쐼,-0.1,61.3,0,0,0,0,0,0,1010.1,1024.8
2021-01-11T00:09:00+09:00,0.7,�k�k��,1.8,��,0,61.4,0,0,0,0,0,0,1010.2,1024.9
2021-01-11T00:10:00+09:00,0.6,�k�k��,1.8,��,0,61.4,0,0,0,0,0,0,1010.2,1024.9
2021-01-11T00:11:00+09:00,0.6,���k��,2.4,��쐼,0.1,61.3,0,0,0,0,0,0,1010.2,1024.9
2021-01-11T00:12:00+09:00,0.7,��쓌,2.8,��,0.1,61.2,0,0,0,0,0,0,1010.2,1024.9
2021-01-11T00:13:00+09:00,0.7,��쓌,2.8,��,0,60.6,0,0,0,0,0,0,1010.2,1024.9
2021-01-11T00:14:00+09:00,0.8,��쓌,2.8,��,-0.2,60.2,0,0,0,0,0,0,1010.3,1025
2021-01-11T00:15:00+09:00,0.7,��,2.8,��,-0.3,60.9,0,0,0,0,0,0,1010.3,1025
2021-01-11T00:16:00+09:00,0.8,��,2.8,��,-0.4,61.3,0,0,0,0,0,0,1010.3,1025.1
2021-01-11T00:17:00+09:00,0.7,��쐼,2.8,��,-0.6,61.6,0,0,0,0,0,0,1010.3,1025.1
2021-01-11T00:18:00+09:00,0.7,��쐼,2.8,��,-0.6,62.1,0,0,0,0,0,0,1010.3,1025.1
2021-01-11T00:19:00+09:00,0.7,�쓌,2.8,��,-0.4,62.7,0,0,0,0,0,0,1010.3,1025.1
2021-01-11T00:20:00+09:00,0.8,��,2.8,��,-0.5,62.9,0,0,0,0,0,0,1010.3,1025.1
2021-01-11T00:21:00+09:00,0.8,��,2.8,��,-0.5,63.2,0,0,0,0,0,0,1010.4,1025.2
2021-01-11T00:22:00+09:00,0.6,���k��,2.8,��,-0.4,63.5,0,0,0,0,0,0,1010.4,1025.2
2021-01-11T00:23:00+09:00,0.4,���k��,1.3,���k��,-0.5,63.5,0,0,0,0,0,0,1010.4,1025.2
2021-01-11T00:24:00+09:00,0.4,���k��,1.3,���k��,-0.5,63.5,0,0,0,0,0,0,1010.4,1025.2
2021-01-11T00:25:00+09:00,0.4,���k��,1.3,���k��,-0.5,63.5,0,0,0,0,0,0,1010.4,1025.2
2021-01-11T00:26:00+09:00,0.3,���k��,1.3,���k��,-0.5,63.6,0,0,0,0,0,0,1010.4,1025.2
2021-01-11T00:27:00+09:00,0.3,��,1.3,���k��,-0.4,63.8,0,0,0,0,0,0,1010.5,1025.3
2021-01-11T00:28:00+09:00,0.3,��,1.3,���k��,-0.3,64,0,0,0,0,0,0,1010.5,1025.3
2021-01-11T00:29:00+09:00,0.3,��,1.3,���k��,-0.5,63.6,0,0,0,0,0,0,1010.5,1025.3
2021-01-11T00:30:00+09:00,0.3,��,1,���k��,-0.6,63.5,0,0,0,0,0,0,1010.4,1025.2
2021-01-11T00:31:00+09:00,0.2,�É�,0.8,��,-0.6,63.9,0,0,0,0,0,0,1010.4,1025.2
2021-01-11T00:32:00+09:00,0.3,���쓌,1.4,��,-0.5,64.1,0,0,0,0,0,0,1010.4,1025.2
2021-01-11T00:33:00+09:00,0.3,���쓌,1.4,��,-0.5,64.2,0,0,0,0,0,0,1010.4,1025.2
2021-01-11T00:34:00+09:00,0.3,�쓌,1.4,��,-0.4,64.3,0,0,0,0,0,0,1010.5,1025.3
2021-01-11T00:35:00+09:00,0.3,�쓌,1.4,��,-0.4,64.3,0,0,0,0,0,0,1010.5,1025.3
2021-01-11T00:36:00+09:00,0.4,�쓌,1.4,��,-0.4,64,0,0,0,0,0,0,1010.5,1025.3
2021-01-11T00:37:00+09:00,0.4,�쓌,1.4,��,-0.5,63.8,0,0,0,0,0,0,1010.4,1025.2
2021-01-11T00:38:00+09:00,0.4,�쓌,1.5,���쓌,-0.5,63.9,0,0,0,0,0,0,1010.4,1025.2
2021-01-11T00:39:00+09:00,0.5,�쓌,1.8,�쓌,-0.6,64,0,0,0,0,0,0,1010.4,1025.2
2021-01-11T00:40:00+09:00,0.5,�쓌,1.8,�쓌,-0.5,64.2,0,0,0,0,0,0,1010.4,1025.2
2021-01-11T00:41:00+09:00,0.5,�쓌,1.8,�쓌,-0.6,64.3,0,0,0,0,0,0,1010.4,1025.2
2021-01-11T00:42:00+09:00,0.5,�쓌,1.8,�쓌,-0.5,64.4,0,0,0,0,0,0,1010.4,1025.2
2021-01-11T00:43:00+09:00,0.4,�쓌,1.8,�쓌,-0.6,64.4,0,0,0,0,0,0,1010.4,1025.2
2021-01-11T00:44:00+09:00,0.5,�쓌,1.8,�쓌,-0.7,64.3,0,0,0,0,0,0,1010.4,1025.2
2021-01-11T00:45:00+09:00,0.5,���쓌,1.8,�쓌,-0.8,64.2,0,0,0,0,0,0,1010.3,1025.1
2021-01-11T00:46:00+09:00,0.5,�쓌,1.8,�쓌,-0.7,64.9,0,0,0,0,0,0,1010.3,1025.1
2021-01-11T00:47:00+09:00,0.5,�쓌,1.8,�쓌,-0.6,65.1,0,0,0,0,0,0,1010.2,1025
2021-01-11T00:48:00+09:00,0.5,�쓌,1.8,�쓌,-0.7,64.8,0,0,0,0,0,0,1010.2,1025
2021-01-11T00:49:00+09:00,0.4,�쓌,1.6,��,-0.3,65.2,0,0,0,0,0,0,1010.3,1025
2021-01-11T00:50:00+09:00,0.5,��쓌,1.6,��,-1,64.3,0,0,0,0,0,0,1010.4,1025.2
2021-01-11T00:51:00+09:00,0.5,��,1.6,��,-1.3,63.6,0,0,0,0,0,0,1010.4,1025.2
2021-01-11T00:52:00+09:00,0.5,��,1.6,��,-1.4,64.9,0,0,0,0,0,0,1010.5,1025.3
2021-01-11T00:53:00+09:00,0.5,��쐼,1.6,��,-1.3,66.1,0,0,0,0,0,0,1010.6,1025.4
2021-01-11T00:54:00+09:00,0.5,�쐼,1.6,��,-1,67.1,0,0,0,0,0,0,1010.6,1025.4
2021-01-11T00:55:00+09:00,0.5,�쐼,1.6,��,-0.8,67.6,0,0,0,0,0,0,1010.6,1025.4
2021-01-11T00:56:00+09:00,0.5,�쐼,1.6,��,-0.8,66.7,0,0,0,0,0,0,1010.6,1025.4
2021-01-11T00:57:00+09:00,0.4,�쐼,1.1,��,-0.8,66.2,0,0,0,0,0,0,1010.5,1025.3
2021-01-11T00:58:00+09:00,0.4,�쐼,1.1,��,-0.8,66.1,0,0,0,0,0,0,1010.5,1025.3
2021-01-11T00:59:00+09:00,0.4,��쐼,1.1,��,-0.8,65.9,0,0,0,0,0,0,1010.5,1025.3
2021-01-11T01:00:00+09:00,0.4,���k��,0.9,���k��,-0.8,65.9,0,0,0,0,0,0,1010.5,1025.3
2021-01-11T01:01:00+09:00,0.3,�k��,0.8,�쓌,-1,65.5,0,0,0,0,0,0,1010.5,1025.3
2021-01-11T01:02:00+09:00,0.4,�k�k��,0.9,�k��,-1.1,65.6,0,0,0,0,0,0,1010.5,1025.3
2021-01-11T01:03:00+09:00,0.4,�k,0.9,�k��,-1.4,65.4,0,0,0,0,0,0,1010.4,1025.2
2021-01-11T01:04:00+09:00,0.5,�k,0.9,�k��,-1.4,66.3,0,0,0,0,0,0,1010.5,1025.3
2021-01-11T01:05:00+09:00,0.5,�k�k��,0.9,�k��,-1.3,67.2,0,0,0,0,0,0,1010.4,1025.2
2021-01-11T01:06:00+09:00,0.4,�k�k��,0.9,�k��,-1.1,67.8,0,0,0,0,0,0,1010.4,1025.2
2021-01-11T01:07:00+09:00,0.5,�k�k��,1,���k��,-0.9,68.1,0,0,0,0,0,0,1010.4,1025.2
2021-01-11T01:08:00+09:00,0.5,�k,1.1,���k��,-1.1,67.1,0,0,0,0,0,0,1010.4,1025.2
2021-01-11T01:09:00+09:00,0.5,�k,1.1,���k��,-1.2,66.7,0,0,0,0,0,0,1010.5,1025.3
2021-01-11T01:10:00+09:00,0.5,�k,1.1,���k��,-1.2,67.3,0,0,0,0,0,0,1010.6,1025.4
2021-01-11T01:11:00+09:00,0.5,�k�k��,1.1,���k��,-1.3,67.8,0,0,0,0,0,0,1010.7,1025.5
2021-01-11T01:12:00+09:00,0.5,�k�k��,1.1,���k��,-1.4,67.8,0,0,0,0,0,0,1010.7,1025.5
2021-01-11T01:13:00+09:00,0.4,�k�k��,1.1,���k��,-1.5,67.9,0,0,0,0,0,0,1010.7,1025.5
2021-01-11T01:14:00+09:00,0.4,�k�k��,1.1,���k��,-1.5,68.2,0,0,0,0,0,0,1010.7,1025.5
2021-01-11T01:15:00+09:00,0.4,�k�k��,1.1,���k��,-1.4,68.8,0,0,0,0,0,0,1010.7,1025.5
2021-01-11T01:16:00+09:00,0.4,�k,1.1,���k��,-1.5,68.7,0,0,0,0,0,0,1010.7,1025.5
2021-01-11T01:17:00+09:00,0.4,�k,1.1,���k��,-1.5,68.8,0,0,0,0,0,0,1010.7,1025.5
2021-01-11T01:18:00+09:00,0.4,�k,1,�k��,-1.5,69,0,0,0,0,0,0,1010.7,1025.5
2021-01-11T01:19:00+09:00,0.3,�k,1,�k��,-1.7,69,0,0,0,0,0,0,1010.7,1025.5
2021-01-11T01:20:00+09:00,0.4,�k,1.1,�k��,-1.7,69.2,0,0,0,0,0,0,1010.7,1025.5
2021-01-11T01:21:00+09:00,0.4,�k,1.3,�k��,-1.6,69.8,0,0,0,0,0,0,1010.7,1025.5
2021-01-11T01:22:00+09:00,0.5,�k�k��,1.4,�k��,-1.5,70.2,0,0,0,0,0,0,1010.8,1025.6
2021-01-11T01:23:00+09:00,0.6,�k�k��,1.6,�k��,-1.7,70.1,0,0,0,0,0,0,1010.8,1025.6
2021-01-11T01:24:00+09:00,0.7,�k�k��,1.6,�k��,-1.8,69.7,0,0,0,0,0,0,1010.8,1025.6
2021-01-11T01:25:00+09:00,0.8,�k��,1.8,�k�k��,-1.9,69.8,0,0,0,0,0,0,1010.9,1025.7
2021-01-11T01:26:00+09:00,0.9,�k��,1.8,�k�k��,-1.8,70.3,0,0,0,0,0,0,1011,1025.8
2021-01-11T01:27:00+09:00,0.9,�k��,1.8,�k�k��,-1.8,70.9,0,0,0,0,0,0,1011,1025.8
2021-01-11T01:28:00+09:00,0.9,�k��,1.8,�k�k��,-1.8,71.1,0,0,0,0,0,0,1011.1,1025.9
2021-01-11T01:29:00+09:00,0.9,�k�k��,1.8,�k�k��,-1.9,71,0,0,0,0,0,0,1011.1,1025.9
2021-01-11T01:30:00+09:00,0.9,�k�k��,1.8,�k�k��,-1.7,71.1,0,0,0,0,0,0,1011.2,1026
2021-01-11T01:31:00+09:00,0.9,�k,1.8,�k�k��,-1.6,71.6,0,0,0,0,0,0,1011.2,1026
2021-01-11T01:32:00+09:00,0.9,�k,1.8,�k�k��,-1.7,71.1,0,0,0,0,0,0,1011.1,1025.9
2021-01-11T01:33:00+09:00,0.9,�k,1.8,�k�k��,-1.9,70.4,0,0,0,0,0,0,1011.2,1026
2021-01-11T01:34:00+09:00,0.9,�k,1.8,�k�k��,-1.8,70.5,0,0,0,0,0,0,1011.2,1026
2021-01-11T01:35:00+09:00,0.8,�k,1.7,�k��,-1.8,71.2,0,0,0,0,0,0,1011.1,1025.9
2021-01-11T01:36:00+09:00,0.8,�k,1.7,�k��,-1.7,71.4,0,0,0,0,0,0,1011.2,1026
2021-01-11T01:37:00+09:00,0.8,�k�k��,1.7,�k��,-1.7,71.5,0,0,0,0,0,0,1011.2,1026
2021-01-11T01:38:00+09:00,0.8,�k�k��,1.7,�k��,-1.7,71.5,0,0,0,0,0,0,1011.1,1025.9
2021-01-11T01:39:00+09:00,0.8,�k,1.7,�k��,-1.8,71.1,0,0,0,0,0,0,1011.1,1025.9
2021-01-11T01:40:00+09:00,0.9,�k,1.9,�k�k��,-1.8,71.1,0,0,0,0,0,0,1011.2,1026
2021-01-11T01:41:00+09:00,0.8,�k,1.9,�k�k��,-1.9,71.2,0,0,0,0,0,0,1011.2,1026
2021-01-11T01:42:00+09:00,0.9,�k,1.9,�k�k��,-2,71.3,0,0,0,0,0,0,1011.3,1026.2
2021-01-11T01:43:00+09:00,0.9,�k,2.2,�k�k��,-1.9,71.7,0,0,0,0,0,0,1011.2,1026
2021-01-11T01:44:00+09:00,1,�k,2.3,�k�k��,-1.9,71.9,0,0,0,0,0,0,1011.2,1026
2021-01-11T01:45:00+09:00,1,�k,2.3,�k�k��,-1.9,72.5,0,0,0,0,0,0,1011.1,1025.9
2021-01-11T01:46:00+09:00,1.2,�k�k��,2.8,�k��,-2,72.1,0,0,0,0,0,0,1011.1,1026
2021-01-11T01:47:00+09:00,1.3,�k�k��,2.8,�k��,-2,72,0,0,0,0,0,0,1011.1,1026
2021-01-11T01:48:00+09:00,1.5,�k�k��,3.1,�k��,-1.9,72.5,0,0,0,0,0,0,1011.1,1025.9
2021-01-11T01:49:00+09:00,1.6,�k�k��,3.1,�k��,-1.8,72.5,0,0,0,0,0,0,1011.1,1025.9
2021-01-11T01:50:00+09:00,1.5,�k�k��,3.1,�k��,-1.8,72.1,0,0,0,0,0,0,1011,1025.8
2021-01-11T01:51:00+09:00,1.5,�k�k��,3.1,�k��,-1.9,71.9,0,0,0,0,0,0,1010.9,1025.7
2021-01-11T01:52:00+09:00,1.5,�k��,3.1,�k��,-1.8,71.9,0,0,0,0,0,0,1010.8,1025.6
2021-01-11T01:53:00+09:00,1.4,�k��,3.1,�k��,-1.8,72.1,0,0,0,0,0,0,1010.8,1025.6
2021-01-11T01:54:00+09:00,1.3,�k��,3.1,�k��,-1.9,72,0,0,0,0,0,0,1010.8,1025.6
2021-01-11T01:55:00+09:00,1.2,�k��,3.1,�k��,-1.9,72,0,0,0,0,0,0,1010.8,1025.6
2021-01-11T01:56:00+09:00,1.1,�k��,3.1,�k��,-2,71.9,0,0,0,0,0,0,1010.7,1025.5
2021-01-11T01:57:00+09:00,0.9,�k��,3.1,�k��,-1.9,71.9,0,0,0,0,0,0,1010.7,1025.5
2021-01-11T01:58:00+09:00,0.7,�k�k��,2,�k�k��,-1.8,72.3,0,0,0,0,0,0,1010.7,1025.5
2021-01-11T01:59:00+09:00,0.7,�k,1.5,���k��,-2,72.2,0,0,0,0,0,0,1010.7,1025.5
2021-01-11T02:00:00+09:00,0.7,�k�k��,1.5,���k��,-2.2,71.4,0,0,0,0,0,0,1010.7,1025.6
2021-01-11T02:01:00+09:00,0.7,�k��,1.4,���k��,-2.1,72,0,0,0,0,0,0,1010.8,1025.7
2021-01-11T02:02:00+09:00,0.7,���k��,1.2,���k��,-1.9,73,0,0,0,0,0,0,1010.7,1025.5
2021-01-11T02:03:00+09:00,0.7,���k��,1.5,���k��,-1.7,73.6,0,0,0,0,0,0,1010.7,1025.5
2021-01-11T02:04:00+09:00,0.8,���k��,1.6,���k��,-1.7,73,0,0,0,0,0,0,1010.8,1025.6
2021-01-11T02:05:00+09:00,0.9,��,2,���k��,-1.8,72.2,0,0,0,0,0,0,1010.8,1025.6
2021-01-11T02:06:00+09:00,1,��,2,���k��,-1.7,72.1,0,0,0,0,0,0,1010.7,1025.5
2021-01-11T02:07:00+09:00,1,��,2,���k��,-1.6,72.2,0,0,0,0,0,0,1010.7,1025.5
2021-01-11T02:08:00+09:00,1,��,2,���k��,-1.6,71.6,0,0,0,0,0,0,1010.7,1025.5
2021-01-11T02:09:00+09:00,1.1,���k��,2,���k��,-1.7,71.1,0,0,0,0,0,0,1010.7,1025.5
2021-01-11T02:10:00+09:00,1.1,���k��,2,���k��,-1.9,70.6,0,0,0,0,0,0,1010.6,1025.4
2021-01-11T02:11:00+09:00,1.2,���k��,2,���k��,-1.9,70.5,0,0,0,0,0,0,1010.7,1025.5
2021-01-11T02:12:00+09:00,1.3,���k��,2.1,���k��,-2.1,70.6,0,0,0,0,0,0,1010.7,1025.6
2021-01-11T02:13:00+09:00,1.4,���k��,2.1,���k��,-2.1,71,0,0,0,0,0,0,1010.7,1025.6
2021-01-11T02:14:00+09:00,1.4,���k��,2.1,���k��,-2.1,71.8,0,0,0,0,0,0,1010.7,1025.6
2021-01-11T02:15:00+09:00,1.4,���k��,2.1,���k��,-2,72.2,0,0,0,0,0,0,1010.7,1025.5
2021-01-11T02:16:00+09:00,1.4,���k��,2.1,���k��,-1.9,72.5,0,0,0,0,0,0,1010.9,1025.7
2021-01-11T02:17:00+09:00,1.5,���k��,2.2,���k��,-2,72.1,0,0,0,0,0,0,1010.8,1025.6
2021-01-11T02:18:00+09:00,1.5,���k��,2.2,���k��,-1.9,71.8,0,0,0,0,0,0,1010.8,1025.6
2021-01-11T02:19:00+09:00,1.6,��,2.2,���k��,-1.9,71.5,0,0,0,0,0,0,1010.8,1025.6
2021-01-11T02:20:00+09:00,1.6,��,2.2,���k��,-1.9,71.4,0,0,0,0,0,0,1010.8,1025.6
2021-01-11T02:21:00+09:00,1.6,��,2.2,���k��,-2.1,71.1,0,0,0,0,0,0,1010.8,1025.7
2021-01-11T02:22:00+09:00,1.5,��,2.2,���k��,-2.4,70.5,0,0,0,0,0,0,1010.8,1025.7
2021-01-11T02:23:00+09:00,1.3,��,2.2,���k��,-2.3,71.1,0,0,0,0,0,0,1010.8,1025.7
2021-01-11T02:24:00+09:00,1.2,��,2.2,���k��,-2.3,72.1,0,0,0,0,0,0,1010.8,1025.7
2021-01-11T02:25:00+09:00,1.1,��,2.2,���k��,-2.2,72.5,0,0,0,0,0,0,1010.8,1025.7
2021-01-11T02:26:00+09:00,1,��,2.2,���k��,-2.3,72.3,0,0,0,0,0,0,1010.9,1025.8
2021-01-11T02:27:00+09:00,0.8,��,2.1,���k��,-2.5,72.1,0,0,0,0,0,0,1010.9,1025.8
2021-01-11T02:28:00+09:00,0.6,���k��,1.9,��,-2.5,72.5,0,0,0,0,0,0,1011,1025.9
2021-01-11T02:29:00+09:00,0.5,���k��,1.8,���k��,-2.4,73.1,0,0,0,0,0,0,1011,1025.9
2021-01-11T02:30:00+09:00,0.4,�k�k��,1.8,���k��,-2.2,73.7,0,0,0,0,0,0,1011,1025.9
2021-01-11T02:31:00+09:00,0.3,�k�k��,1.4,��,-2.2,74,0,0,0,0,0,0,1010.9,1025.8
2021-01-11T02:32:00+09:00,0.2,�É�,0.8,���k��,-2.3,73.6,0,0,0,0,0,0,1011,1025.9
2021-01-11T02:33:00+09:00,0.2,�É�,0.8,���k��,-2.3,73,0,0,0,0,0,0,1011,1025.9
2021-01-11T02:34:00+09:00,0.1,�É�,0.7,�k�k��,-2.2,73.2,0,0,0,0,0,0,1011,1025.9
2021-01-11T02:35:00+09:00,0.2,�É�,0.7,�k�k��,-2.3,72.8,0,0,0,0,0,0,1011,1025.9
2021-01-11T02:36:00+09:00,0.3,�k,1.4,�k�k��,-2.2,72.7,0,0,0,0,0,0,1011,1025.9
2021-01-11T02:37:00+09:00,0.3,�k,1.4,�k�k��,-2.4,72.3,0,0,0,0,0,0,1011,1025.9
2021-01-11T02:38:00+09:00,0.4,�k�k��,1.8,�k��,-2.3,72.4,0,0,0,0,0,0,1011,1025.9
2021-01-11T02:39:00+09:00,0.5,�k�k��,1.8,�k��,-2.2,72.7,0,0,0,0,0,0,1011.1,1026
2021-01-11T02:40:00+09:00,0.6,�k�k��,1.8,�k��,-2.2,73.1,0,0,0,0,0,0,1011.1,1026
2021-01-11T02:41:00+09:00,0.7,�k�k��,1.8,�k��,-2.1,73.1,0,0,0,0,0,0,1011.1,1026
2021-01-11T02:42:00+09:00,0.7,�k�k��,1.8,�k��,-2.3,72.6,0,0,0,0,0,0,1011.1,1026
2021-01-11T02:43:00+09:00,0.7,�k�k��,1.8,�k��,-2.5,72.1,0,0,0,0,0,0,1011.2,1026.1
2021-01-11T02:44:00+09:00,0.8,�k�k��,1.8,�k��,-2.6,72.2,0,0,0,0,0,0,1011.1,1026
2021-01-11T02:45:00+09:00,0.8,�k�k��,1.8,�k��,-2.7,72.4,0,0,0,0,0,0,1011.1,1026
2021-01-11T02:46:00+09:00,0.7,�k�k��,1.8,�k��,-2.5,73.3,0,0,0,0,0,0,1011.1,1026
2021-01-11T02:47:00+09:00,0.7,�k�k��,1.8,�k��,-2.5,73.8,0,0,0,0,0,0,1011.1,1026
2021-01-11T02:48:00+09:00,0.6,�k�k��,1.6,�k��,-2.5,74,0,0,0,0,0,0,1011.1,1026
2021-01-11T02:49:00+09:00,0.5,�k�k��,1.6,�k��,-2.4,74.3,0,0,0,0,0,0,1011.1,1026
2021-01-11T02:50:00+09:00,0.5,�k�k��,1.5,�k��,-2.3,74.6,0,0,0,0,0,0,1011.1,1026
2021-01-11T02:51:00+09:00,0.4,�k�k��,1,�k��,-2.3,74.5,0,0,0,0,0,0,1011.1,1026
2021-01-11T02:52:00+09:00,0.3,�k�k��,1,�k��,-2.3,74.3,0,0,0,0,0,0,1011.1,1026
2021-01-11T02:53:00+09:00,0.3,�k�k��,1,�k��,-2.4,74.1,0,0,0,0,0,0,1011.1,1026
2021-01-11T02:54:00+09:00,0.2,�É�,0.8,�k�k��,-2.2,74.2,0,0,0,0,0,0,1011.1,1026
2021-01-11T02:55:00+09:00,0.2,�É�,0.8,�k�k��,-2.2,74.4,0,0,0,0,0,0,1011.1,1026
2021-01-11T02:56:00+09:00,0.2,�É�,0.8,�k�k��,-2.1,74.1,0,0,0,0,0,0,1011.1,1026
2021-01-11T02:57:00+09:00,0.2,�É�,0.8,�k�k��,-2.1,73.8,0,0,0,0,0,0,1011.1,1026
2021-01-11T02:58:00+09:00,0.2,�É�,0.8,�k�k��,-2.2,73.6,0,0,0,0,0,0,1011.1,1026
2021-01-11T02:59:00+09:00,0.2,�É�,0.8,�k�k��,-2.2,73.3,0,0,0,0,0,0,1011.1,1026
2021-01-11T03:00:00+09:00,0.2,�É�,1,���k��,-2.1,73.2,0,0,0,0,0,0,1011.1,1026
2021-01-11T03:01:00+09:00,0.2,�É�,1,���k��,-2.1,73.5,0,0,0,0,0,0,1011.1,1026
2021-01-11T03:02:00+09:00,0.3,���k��,1,���k��,-2.3,73.3,0,0,0,0,0,0,1011.1,1026
2021-01-11T03:03:00+09:00,0.4,���k��,1,���k��,-2.4,73,0,0,0,0,0,0,1011,1025.9
2021-01-11T03:04:00+09:00,0.4,��,1,���k��,-2.2,73,0,0,0,0,0,0,1011,1025.9
2021-01-11T03:05:00+09:00,0.4,��,1,���k��,-2.2,73.5,0,0,0,0,0,0,1011,1025.9
2021-01-11T03:06:00+09:00,0.4,��,1,���k��,-2.3,73.2,0,0,0,0,0,0,1011,1025.9
2021-01-11T03:07:00+09:00,0.5,��,1,���k��,-2.3,72.9,0,0,0,0,0,0,1011,1025.9
2021-01-11T03:08:00+09:00,0.5,��,1,���k��,-2.3,73,0,0,0,0,0,0,1010.9,1025.8
2021-01-11T03:09:00+09:00,0.5,���k��,1,���k��,-2.5,72.6,0,0,0,0,0,0,1010.9,1025.8
2021-01-11T03:10:00+09:00,0.5,���k��,0.9,��,-2.5,72.7,0,0,0,0,0,0,1011,1025.9
2021-01-11T03:11:00+09:00,0.5,���k��,1.7,���k��,-2.3,73.5,0,0,0,0,0,0,1011,1025.9
2021-01-11T03:12:00+09:00,0.5,���k��,1.7,���k��,-2.4,73.8,0,0,0,0,0,0,1011,1025.9
2021-01-11T03:13:00+09:00,0.5,���k��,1.7,���k��,-2.4,73.7,0,0,0,0,0,0,1011,1025.9
2021-01-11T03:14:00+09:00,0.5,���k��,1.7,���k��,-2.4,74.1,0,0,0,0,0,0,1011,1025.9
2021-01-11T03:15:00+09:00,0.5,���k��,1.7,���k��,-2.5,74.2,0,0,0,0,0,0,1011,1025.9
2021-01-11T03:16:00+09:00,0.4,���k��,1.7,���k��,-2.5,74.3,0,0,0,0,0,0,1011,1025.9
2021-01-11T03:17:00+09:00,0.4,���k��,1.7,���k��,-2.6,74.6,0,0,0,0,0,0,1011,1025.9
2021-01-11T03:18:00+09:00,0.4,��,1.7,���k��,-2.6,75.1,0,0,0,0,0,0,1010.9,1025.8
2021-01-11T03:19:00+09:00,0.4,��쐼,1.7,���k��,-2.6,75.8,0,0,0,0,0,0,1010.9,1025.8
2021-01-11T03:20:00+09:00,0.4,��,1.7,���k��,-2.4,76.6,0,0,0,0,0,0,1010.8,1025.7
2021-01-11T03:21:00+09:00,0.3,��,1.3,���k��,-2.3,77.8,0,0,0,0,0,0,1010.8,1025.7
2021-01-11T03:22:00+09:00,0.3,��쓌,1.2,�쐼,-2.6,76.9,0,0,0,0,0,0,1010.7,1025.6
2021-01-11T03:23:00+09:00,0.2,�É�,1.2,�쐼,-2.3,76.9,0,0,0,0,0,0,1010.8,1025.7
2021-01-11T03:24:00+09:00,0.2,�É�,1.2,�쐼,-2.5,77.2,0,0,0,0,0,0,1010.7,1025.6
2021-01-11T03:25:00+09:00,0.2,�É�,1.2,�쐼,-2.7,76.1,0,0,0,0,0,0,1010.7,1025.6
2021-01-11T03:26:00+09:00,0.2,�É�,1.2,�쐼,-2.7,76.1,0,0,0,0,0,0,1010.7,1025.6
2021-01-11T03:27:00+09:00,0.2,�É�,1.2,�쐼,-2.6,76.7,0,0,0,0,0,0,1010.7,1025.6
2021-01-11T03:28:00+09:00,0.2,�É�,1.2,�쐼,-2.5,77.3,0,0,0,0,0,0,1010.7,1025.6
2021-01-11T03:29:00+09:00,0.3,���k��,1.2,�쐼,-2.5,77.8,0,0,0,0,0,0,1010.7,1025.6
2021-01-11T03:30:00+09:00,0.4,���k��,1.2,�쐼,-2.3,77.8,0,0,0,0,0,0,1010.7,1025.6
2021-01-11T03:31:00+09:00,0.4,���k��,1.6,��,-2.3,77.6,0,0,0,0,0,0,1010.6,1025.5
2021-01-11T03:32:00+09:00,0.5,���k��,1.8,���쐼,-2.4,76.9,0,0,0,0,0,0,1010.7,1025.6
2021-01-11T03:33:00+09:00,0.6,���k��,1.8,���쐼,-2.5,76.4,0,0,0,0,0,0,1010.7,1025.6
2021-01-11T03:34:00+09:00,0.6,��,1.8,���쐼,-2.2,76.2,0,0,0,0,0,0,1010.7,1025.6
2021-01-11T03:35:00+09:00,0.6,��,1.8,���쐼,-2.4,76.1,0,0,0,0,0,0,1010.7,1025.6
2021-01-11T03:36:00+09:00,0.6,��,1.8,���쐼,-2.4,75.8,0,0,0,0,0,0,1010.6,1025.5
2021-01-11T03:37:00+09:00,0.6,���쐼,1.8,���쐼,-2.4,76.2,0,0,0,0,0,0,1010.6,1025.5
2021-01-11T03:38:00+09:00,0.6,���쐼,1.8,���쐼,-2.2,76.7,0,0,0,0,0,0,1010.6,1025.5
2021-01-11T03:39:00+09:00,0.7,���쐼,1.8,���쐼,-2.2,76.8,0,0,0,0,0,0,1010.6,1025.5
2021-01-11T03:40:00+09:00,0.8,���쐼,1.8,���쐼,-2.2,76.1,0,0,0,0,0,0,1010.6,1025.5
2021-01-11T03:41:00+09:00,0.8,���쐼,1.8,���쐼,-2.1,75.7,0,0,0,0,0,0,1010.6,1025.5
2021-01-11T03:42:00+09:00,0.7,�쐼,1.8,���쐼,-1.8,76.6,0,0,0,0,0,0,1010.6,1025.4
2021-01-11T03:43:00+09:00,0.7,�쐼,1.8,���쐼,-2,75,0,0,0,0,0,0,1010.6,1025.4
2021-01-11T03:44:00+09:00,0.7,�쐼,1.8,���쐼,-2.1,74.1,0,0,0,0,0,0,1010.7,1025.6
2021-01-11T03:45:00+09:00,0.7,�쐼,1.8,���쐼,-2.2,73.6,0,0,0,0,0,0,1010.7,1025.6
2021-01-11T03:46:00+09:00,0.8,�쐼,1.8,���쐼,-2.5,73.3,0,0,0,0,0,0,1010.8,1025.7
2021-01-11T03:47:00+09:00,1,�쐼,2,��쐼,-2.4,73.7,0,0,0,0,0,0,1010.7,1025.6
2021-01-11T03:48:00+09:00,1.1,�쐼,2.2,�쐼,-2.3,74.4,0,0,0,0,0,0,1010.7,1025.6
2021-01-11T03:49:00+09:00,1.2,�쐼,2.2,�쐼,-2.4,74.2,0,0,0,0,0,0,1010.7,1025.6
2021-01-11T03:50:00+09:00,1.2,�쐼,2.2,�쐼,-2.5,74,0,0,0,0,0,0,1010.7,1025.6
2021-01-11T03:51:00+09:00,1.2,�쐼,2.2,�쐼,-2.5,74.2,0,0,0,0,0,0,1010.7,1025.6
2021-01-11T03:52:00+09:00,1.3,�쐼,2.2,�쐼,-2.5,74.5,0,0,0,0,0,0,1010.7,1025.6
2021-01-11T03:53:00+09:00,1.4,�쐼,2.2,�쐼,-2.5,74.7,0,0,0,0,0,0,1010.7,1025.6
2021-01-11T03:54:00+09:00,1.5,�쐼,2.2,�쐼,-2.6,74.8,0,0,0,0,0,0,1010.7,1025.6
2021-01-11T03:55:00+09:00,1.6,�쐼,2.2,�쐼,-2.6,75,0,0,0,0,0,0,1010.7,1025.6
2021-01-11T03:56:00+09:00,1.6,�쐼,2.2,�쐼,-2.5,75.1,0,0,0,0,0,0,1010.6,1025.5
2021-01-11T03:57:00+09:00,1.6,�쐼,2.2,�쐼,-2.4,75.6,0,0,0,0,0,0,1010.6,1025.5
2021-01-11T03:58:00+09:00,1.5,��쐼,2.2,�쐼,-2.6,75.3,0,0,0,0,0,0,1010.5,1025.4
2021-01-11T03:59:00+09:00,1.5,��쐼,2.3,��,-2.6,74.9,0,0,0,0,0,0,1010.5,1025.4
2021-01-11T04:00:00+09:00,1.5,��쐼,2.3,��,-2.7,74.9,0,0,0,0,0,0,1010.4,1025.3
2021-01-11T04:01:00+09:00,1.6,��쐼,2.3,��,-2.7,75.2,0,0,0,0,0,0,1010.4,1025.3
2021-01-11T04:02:00+09:00,1.6,��쐼,2.3,��,-2.8,75.3,0,0,0,0,0,0,1010.4,1025.3
2021-01-11T04:03:00+09:00,1.6,��쐼,2.3,��,-2.9,75.5,0,0,0,0,0,0,1010.5,1025.4
2021-01-11T04:04:00+09:00,1.5,��쐼,2.3,��,-2.9,75.7,0,0,0,0,0,0,1010.5,1025.4
2021-01-11T04:05:00+09:00,1.4,��쐼,2.3,��,-3,75.8,0,0,0,0,0,0,1010.5,1025.4
2021-01-11T04:06:00+09:00,1.4,��쐼,2.3,��,-2.9,76.1,0,0,0,0,0,0,1010.4,1025.3
2021-01-11T04:07:00+09:00,1.3,��쐼,2.3,��,-2.9,76.8,0,0,0,0,0,0,1010.4,1025.3
2021-01-11T04:08:00+09:00,1.3,��쐼,2.3,��,-3,76.7,0,0,0,0,0,0,1010.3,1025.2
2021-01-11T04:09:00+09:00,1.2,��쐼,2.2,��,-3,76.9,0,0,0,0,0,0,1010.3,1025.2
2021-01-11T04:10:00+09:00,1.2,��쐼,2.2,��,-3.1,77.2,0,0,0,0,0,0,1010.3,1025.2
2021-01-11T04:11:00+09:00,1.1,��쐼,1.9,��쐼,-2.9,77.6,0,0,0,0,0,0,1010.4,1025.3
2021-01-11T04:12:00+09:00,1,��쐼,1.9,��쐼,-3,77.9,0,0,0,0,0,0,1010.4,1025.3
2021-01-11T04:13:00+09:00,0.9,��쐼,1.9,��쐼,-2.7,78.1,0,0,0,0,0,0,1010.5,1025.4
2021-01-11T04:14:00+09:00,0.9,��쐼,1.9,��쐼,-2.6,78.6,0,0,0,0,0,0,1010.6,1025.5
2021-01-11T04:15:00+09:00,0.9,��쐼,1.9,��쐼,-2.6,78.7,0,0,0,0,0,0,1010.6,1025.5
2021-01-11T04:16:00+09:00,0.9,��쐼,1.9,��쐼,-2.5,78.3,0,0,0,0,0,0,1010.6,1025.5
2021-01-11T04:17:00+09:00,1,��쐼,1.9,��쐼,-2.4,78.2,0,0,0,0,0,0,1010.6,1025.5
2021-01-11T04:18:00+09:00,1,��쐼,1.9,��쐼,-2.5,77.5,0,0,0,0,0,0,1010.7,1025.6
2021-01-11T04:19:00+09:00,1.1,��쐼,2,��,-2.6,76.8,0,0,0,0,0,0,1010.7,1025.6
2021-01-11T04:20:00+09:00,1.1,��쐼,2.4,��,-2.6,76.4,0,0,0,0,0,0,1010.7,1025.6
2021-01-11T04:21:00+09:00,1.3,��쐼,2.4,��,-2.6,76.3,0,0,0,0,0,0,1010.8,1025.7
2021-01-11T04:22:00+09:00,1.3,��쐼,2.4,��,-2.5,76.5,0,0,0,0,0,0,1010.8,1025.7
2021-01-11T04:23:00+09:00,1.4,��쐼,2.4,��,-2.7,76.4,0,0,0,0,0,0,1010.8,1025.7
2021-01-11T04:24:00+09:00,1.4,��쐼,2.4,��,-2.8,75.9,0,0,0,0,0,0,1010.8,1025.7
2021-01-11T04:25:00+09:00,1.4,��쐼,2.4,��,-2.6,76.5,0,0,0,0,0,0,1010.7,1025.6
2021-01-11T04:26:00+09:00,1.4,��쐼,2.4,��,-2.7,76.8,0,0,0,0,0,0,1010.7,1025.6
2021-01-11T04:27:00+09:00,1.3,��쐼,2.4,��,-2.6,76.7,0,0,0,0,0,0,1010.7,1025.6
2021-01-11T04:28:00+09:00,1.2,��쐼,2.4,��,-2.5,77.3,0,0,0,0,0,0,1010.7,1025.6
2021-01-11T04:29:00+09:00,1.1,��쐼,2.4,��,-2.4,77.2,0,0,0,0,0,0,1010.7,1025.6
2021-01-11T04:30:00+09:00,1,��쐼,2.3,��쐼,-2.3,77.6,0,0,0,0,0,0,1010.6,1025.5
2021-01-11T04:31:00+09:00,0.9,�쐼,2,��쐼,-1.9,77.9,0,0,0,0,0,0,1010.6,1025.4
2021-01-11T04:32:00+09:00,0.8,�쐼,2,��쐼,-2.6,75.7,0,0,0,0,0,0,1010.6,1025.5
2021-01-11T04:33:00+09:00,0.7,�쐼,1.3,��쐼,-2.5,74.9,0,0,0,0,0,0,1010.6,1025.5
2021-01-11T04:34:00+09:00,0.7,�쐼,1.3,��쐼,-2.7,75.3,0,0,0,0,0,0,1010.6,1025.5
2021-01-11T04:35:00+09:00,0.6,���쐼,1.3,��쐼,-2.8,75.1,0,0,0,0,0,0,1010.5,1025.4
2021-01-11T04:36:00+09:00,0.6,���쐼,1.3,��쐼,-2.9,75.4,0,0,0,0,0,0,1010.5,1025.4
2021-01-11T04:37:00+09:00,0.5,���쐼,1.2,�쐼,-2.9,76.1,0,0,0,0,0,0,1010.5,1025.4
2021-01-11T04:38:00+09:00,0.5,��,1.2,�쐼,-2.8,76.7,0,0,0,0,0,0,1010.6,1025.5
2021-01-11T04:39:00+09:00,0.5,�k��,1.2,�쐼,-2.7,77.2,0,0,0,0,0,0,1010.6,1025.5
2021-01-11T04:40:00+09:00,0.6,�k��,1.3,��,-2.7,77.3,0,0,0,0,0,0,1010.6,1025.5
2021-01-11T04:41:00+09:00,0.5,�k��,1.3,��,-2.8,76.8,0,0,0,0,0,0,1010.6,1025.5
2021-01-11T04:42:00+09:00,0.5,�k�k��,1.3,��,-2.8,77,0,0,0,0,0,0,1010.5,1025.4
2021-01-11T04:43:00+09:00,0.4,�k�k��,1.3,��,-2.8,76.7,0,0,0,0,0,0,1010.5,1025.4
2021-01-11T04:44:00+09:00,0.4,���k��,1.3,��,-2.8,76.5,0,0,0,0,0,0,1010.5,1025.4
2021-01-11T04:45:00+09:00,0.4,���k��,1.3,��,-2.7,77.2,0,0,0,0,0,0,1010.5,1025.4
2021-01-11T04:46:00+09:00,0.3,�쐼,1.3,��,-2.7,77.4,0,0,0,0,0,0,1010.5,1025.4
2021-01-11T04:47:00+09:00,0.3,�쐼,1.3,��,-2.9,77,0,0,0,0,0,0,1010.4,1025.3
2021-01-11T04:48:00+09:00,0.3,�쐼,1.3,��,-2.7,77.1,0,0,0,0,0,0,1010.3,1025.2
2021-01-11T04:49:00+09:00,0.3,��쐼,1.3,��,-2.5,77.7,0,0,0,0,0,0,1010.4,1025.3
2021-01-11T04:50:00+09:00,0.2,�É�,1,��,-2.2,78.2,0,0,0,0,0,0,1010.4,1025.3
2021-01-11T04:51:00+09:00,0.2,�É�,0.9,�k��,-2.5,77.8,0,0,0,0,0,0,1010.4,1025.3
2021-01-11T04:52:00+09:00,0.3,�쐼,0.9,�k��,-2.8,75.9,0,0,0,0,0,0,1010.4,1025.3
2021-01-11T04:53:00+09:00,0.3,�쐼,0.9,�k��,-2.8,75.7,0,0,0,0,0,0,1010.4,1025.3
2021-01-11T04:54:00+09:00,0.3,���쐼,0.9,�k��,-3.1,75.6,0,0,0,0,0,0,1010.3,1025.2
2021-01-11T04:55:00+09:00,0.4,�쐼,0.9,�k��,-3,76.1,0,0,0,0,0,0,1010.2,1025.1
2021-01-11T04:56:00+09:00,0.4,�쐼,0.9,�k��,-2.9,76.9,0,0,0,0,0,0,1010.3,1025.2
2021-01-11T04:57:00+09:00,0.4,�쐼,0.9,�k��,-2.7,77.9,0,0,0,0,0,0,1010.3,1025.2
2021-01-11T04:58:00+09:00,0.3,�쐼,0.9,�k��,-2.7,78.2,0,0,0,0,0,0,1010.4,1025.3
2021-01-11T04:59:00+09:00,0.3,���쐼,0.9,�k��,-2.7,77.9,0,0,0,0,0,0,1010.3,1025.2
2021-01-11T05:00:00+09:00,0.4,��,0.9,�k��,-3,76.7,0,0,0,0,0,0,1010.4,1025.3
2021-01-11T05:01:00+09:00,0.4,��,0.9,��,-3.1,76.4,0,0,0,0,0,0,1010.4,1025.3
2021-01-11T05:02:00+09:00,0.4,���쐼,1.1,��,-3.2,76.3,0,0,0,0,0,0,1010.4,1025.3